Bonnefoy, France

11:33 AM CET on December 15, 2018 (GMT +0100)
Bonnefoy

Weather History for 07630 - September, 2004

Change the Weather History Date:

Thursday, September 16, 2004

  Actual Average Record
Temperature  
Mean Temperature 63 °F -  
Max Temperature 72 °F 69 °F - ()
Min Temperature 54 °F 52 °F - ()
Degree Days  
Heating Degree Days 2    
Growing Degree Days 13 (Base 50)    
Moisture  
Dew Point 48 °F    
Average Humidity 63    
Maximum Humidity 88    
Minimum Humidity 25    
Precipitation  
Precipitation 0.01 in 0.07 in - ()
Sea Level Pressure  
Sea Level Pressure 30.24 in    
Wind  
Wind Speed 8 mph ()    
Max Wind Speed 13 mph    
Max Gust Speed -    
Visibility 6.4 miles    
Events Rain    
T = Trace of Precipitation, MM = Missing Value Source: Averaged Metar Reports

Daily Weather History Graph

Daily Weather History Graph

Search for Another Location

Airport or City:

Astronomy

Sep. 16, 2004 Rise Set
Actual Time 7:35 AM CEST 8:02 PM CEST
Civil Twilight 7:06 AM CEST 8:31 PM CEST
Nautical Twilight 6:32 AM CEST 9:05 PM CEST
Astronomical Twilight 5:57 AM CEST 9:40 PM CEST
Moon 9:26 AM CEST (9/16) 9:02 PM CEST (9/16)
Length of Visible Light 13h 24m
Length of Day
12h 27m
Waxing Crescent, 4% of the Moon is Illuminated
Sep 16
Waxing Crescent
Sep 21
First Quarter
Sep 28
Full
Oct 6
Last Quarter
Oct 14
New

Hourly Weather History & Observations

Time (CEST) Temp. Dew Point Humidity Pressure Visibility Wind Dir Wind Speed Gust Speed Precip Events Conditions
12:00 AM 60.8 °F 55.4 °F 82% 30.24 in 6.2 mi WNW 6.9 mph - N/A   Mostly Cloudy
12:30 AM 60.8 °F 55.4 °F 82% 30.24 in 6.2 mi WNW 8.1 mph - N/A Rain Light Rain
1:00 AM 59.0 °F 55.4 °F 88% 30.27 in 6.2 mi WNW 8.1 mph - N/A   Partly Cloudy
1:30 AM 59.0 °F 55.4 °F 88% 30.24 in 6.2 mi West 9.2 mph - N/A   Unknown
2:00 AM 58 °F 54 °F 83% 30.27 in 37 mi West 9.2 mph - -   Clear
2:00 AM 57.2 °F 53.6 °F 88% 30.24 in 6.2 mi West 9.2 mph - N/A   Partly Cloudy
2:30 AM 57.2 °F 53.6 °F 88% 30.24 in 6.2 mi West 8.1 mph - N/A   Partly Cloudy
3:00 AM 59.0 °F 53.6 °F 82% 30.24 in 6.2 mi WNW 10.4 mph - N/A   Unknown
3:30 AM 59.0 °F 53.6 °F 82% 30.24 in - WNW 10.4 mph - N/A   Clear
4:00 AM 57.2 °F 53.6 °F 88% 30.24 in 6.2 mi WNW 8.1 mph - N/A   Mostly Cloudy
4:30 AM 57.2 °F 53.6 °F 88% 30.24 in 6.2 mi West 9.2 mph - N/A   Mostly Cloudy
5:00 AM 57.2 °F 53.6 °F 88% 30.24 in 6.2 mi WNW 8.1 mph - N/A   Mostly Cloudy
5:30 AM 57.2 °F 53.6 °F 88% 30.24 in 6.2 mi West 9.2 mph - N/A   Mostly Cloudy
6:00 AM 57.2 °F 51.8 °F 82% 30.24 in 6.2 mi WNW 9.2 mph - N/A   Mostly Cloudy
6:30 AM 57.2 °F 51.8 °F 82% 30.24 in 6.2 mi WNW 8.1 mph - N/A   Mostly Cloudy
7:00 AM 55.4 °F 51.8 °F 88% 30.24 in 6.2 mi WNW 8.1 mph - N/A   Mostly Cloudy
7:30 AM 55.4 °F 51.8 °F 88% 30.27 in 6.2 mi WNW 8.1 mph - N/A   Mostly Cloudy
8:00 AM 55 °F 52 °F 84% 30.28 in 12 mi West 6.9 mph - -   Mostly Cloudy
8:00 AM 55.4 °F 51.8 °F 88% 30.27 in 6.2 mi West 8.1 mph - N/A   Mostly Cloudy
8:30 AM 55.4 °F 51.8 °F 88% 30.27 in 6.2 mi West 8.1 mph - N/A   Mostly Cloudy
9:00 AM 55.4 °F 51.8 °F 88% 30.27 in 6.2 mi West 5.8 mph - N/A   Mostly Cloudy
9:30 AM 57.2 °F 51.8 °F 82% 30.27 in 6.2 mi WNW 5.8 mph - N/A   Scattered Clouds
10:00 AM 59.0 °F 51.8 °F 77% 30.27 in 6.2 mi WNW 5.8 mph - N/A   Scattered Clouds
10:30 AM 60.8 °F 51.8 °F 72% 30.27 in - WNW 4.6 mph - N/A   Clear
11:00 AM 62.6 °F 53.6 °F 72% 30.27 in 6.2 mi NW 5.8 mph - N/A   Scattered Clouds
11:30 AM 62.6 °F 51.8 °F 68% 30.27 in 6.2 mi NW 6.9 mph - N/A   Partly Cloudy
12:00 PM 64.4 °F 51.8 °F 64% 30.27 in 6.2 mi NW 6.9 mph - N/A   Scattered Clouds
12:30 PM 66.2 °F 48.2 °F 52% 30.27 in 6.2 mi NNW 6.9 mph - N/A   Scattered Clouds
1:00 PM 68.0 °F 48.2 °F 49% 30.27 in 6.2 mi NW 11.5 mph - N/A   Scattered Clouds
1:30 PM 68.0 °F 44.6 °F 43% 30.24 in 6.2 mi North 9.2 mph - N/A   Scattered Clouds
2:00 PM 69 °F 44 °F 30% 30.24 in 22 mi NNW 9.2 mph - -   Partly Cloudy
2:00 PM 69.8 °F 44.6 °F 40% 30.24 in 6.2 mi NNW 9.2 mph - N/A   Scattered Clouds
2:30 PM 69.8 °F 44.6 °F 40% 30.24 in 6.2 mi NNW 11.5 mph - N/A   Scattered Clouds
3:00 PM 69.8 °F 44.6 °F 40% 30.21 in - NW 11.5 mph - N/A   Clear
4:00 PM 71.6 °F 42.8 °F 35% 30.21 in - NW 9.2 mph - N/A   Clear
4:30 PM 71.6 °F 42.8 °F 35% 30.21 in - NNW 12.7 mph - N/A   Clear
5:00 PM 71.6 °F 42.8 °F 35% 30.21 in - NNW 12.7 mph - N/A   Clear
5:30 PM 71.6 °F 41.0 °F 33% 30.21 in - North 10.4 mph - N/A   Clear
6:00 PM 71.6 °F 41.0 °F 33% 30.21 in - NNW 12.7 mph - N/A   Clear
6:30 PM 69.8 °F 41.0 °F 35% 30.21 in - North 12.7 mph - N/A   Clear
7:00 PM 69.8 °F 41.0 °F 35% 30.21 in - North 11.5 mph - N/A   Clear
7:30 PM 69.8 °F 39.2 °F 33% 30.21 in - North 10.4 mph - N/A   Clear
8:00 PM 67 °F 40 °F 25% 30.22 in 22 mi North 9.2 mph - -   Clear
8:00 PM 68.0 °F 39.2 °F 35% 30.21 in - NNW 10.4 mph - N/A   Clear
8:30 PM 66.2 °F 41.0 °F 40% 30.21 in - North 6.9 mph - N/A   Clear
9:00 PM 64.4 °F 41.0 °F 42% 30.24 in - North 5.8 mph - N/A   Clear
9:30 PM 62.6 °F 42.8 °F 48% 30.24 in - North 4.6 mph - N/A   Clear
10:00 PM 62.6 °F 42.8 °F 48% 30.24 in - NNW 5.8 mph - N/A   Clear
10:30 PM 60.8 °F 44.6 °F 55% 30.24 in - North 4.6 mph - N/A   Clear
11:00 PM 59.0 °F 44.6 °F 59% 30.24 in - NNW 3.5 mph - N/A   Clear
11:30 PM 57.2 °F 44.6 °F 63% 30.24 in - NNW 3.5 mph - N/A   Clear